GW2128 Weather Reports


Display with metric or nautical units.
time (UTC)temp
F
wind
direction
speed
MPH
gust
MPH
rain 1hr
in
rain 24hr
in
rain mn
in
humidity
%
barometer
mb
20260507232535 50 186 0.0 1.0 0.00 0.00 0.00 77 1013.0
20260507232034 50 1 0.0 1.0 0.00 0.00 0.00 77 1012.8
20260507231535 50 249 1.0 2.0 0.00 0.00 0.00 76 1012.9
20260507231034 50 128 1.0 1.0 0.00 0.00 0.00 76 1012.8
20260507230534 50 323 0.0 0.0 0.00 0.00 0.00 76 1013.1
20260507230035 50 45 0.0 0.0 0.00 0.00 0.00 76 1012.9
20260507225534 50 306 2.0 3.0 0.00 0.00 0.00 76 1013.0
20260507225034 50 171 0.0 0.0 0.00 0.00 0.00 76 1012.8
20260507224534 50 279 0.0 2.0 0.00 0.00 0.00 76 1012.8
20260507224034 50 328 0.0 1.0 0.00 0.00 0.00 76 1013.0
20260507223534 50 210 0.0 1.0 0.00 0.00 0.00 76 1013.0
20260507223034 51 212 1.0 1.0 0.00 0.00 0.00 76 1012.9
20260507222534 51 275 0.0 1.0 0.00 0.00 0.00 76 1012.8
20260507222034 51 188 1.0 2.0 0.00 0.00 0.00 76 1012.9
20260507221534 51 165 1.0 2.0 0.00 0.00 0.00 76 1012.9
20260507221034 51 64 1.0 1.0 0.00 0.00 0.00 76 1012.9
20260507220535 51 67 0.0 1.0 0.00 0.00 0.00 76 1012.9
20260507220034 51 209 0.0 1.0 0.00 0.00 0.00 76 1012.9
20260507215534 51 165 0.0 1.0 0.00 0.00 0.00 75 1012.9
20260507215034 50 196 0.0 2.0 0.00 0.00 0.00 75 1012.9
20260507214534 51 59 0.0 2.0 0.00 0.00 0.00 75 1012.7
20260507214034 51 169 1.0 1.0 0.00 0.00 0.00 75 1012.9
20260507213534 51 206 0.0 1.0 0.00 0.00 0.00 75 1012.8
20260507213034 51 120 0.0 2.0 0.00 0.00 0.00 74 1012.9
20260507212534 51 56 1.0 2.0 0.00 0.00 0.00 75 1012.8
20260507212034 51 196 1.0 2.0 0.00 0.00 0.00 74 1012.9
20260507211534 51 80 0.0 0.0 0.00 0.00 0.00 74 1013.1
20260507211034 51 36 0.0 1.0 0.00 0.00 0.00 74 1012.7
20260507210534 52 202 0.0 1.0 0.00 0.00 0.00 74 1012.7
20260507210035 52 199 1.0 2.0 0.00 0.00 0.00 74 1012.9
20260507205534 52 181 2.0 3.0 0.00 0.00 0.00 74 1013.2
20260507205035 52 201 1.0 8.0 0.00 0.00 0.00 74 1012.9
20260507204534 52 208 2.0 2.0 0.00 0.00 0.00 73 1012.7
20260507204034 52 201 2.0 6.0 0.00 0.00 0.00 73 1012.7
20260507203534 52 202 2.0 3.0 0.00 0.00 0.00 73 1012.9
20260507203034 52 189 3.0 4.0 0.00 0.00 0.00 73 1012.5
20260507202534 52 189 3.0 4.0 0.00 0.00 0.00 73 1012.7
20260507202034 52 249 1.0 3.0 0.00 0.00 0.00 73 1012.7
20260507201534 52 190 2.0 2.0 0.00 0.00 0.00 72 1012.5
20260507201034 53 204 2.0 4.0 0.00 0.00 0.00 72 1012.6
20260507200534 53 217 2.0 2.0 0.00 0.00 0.00 72 1012.7
20260507200034 53 132 2.0 3.0 0.00 0.00 0.00 72 1012.5
20260507195534 53 10 3.0 6.0 0.00 0.00 0.00 72 1012.7
20260507195034 53 197 2.0 2.0 0.00 0.00 0.00 72 1012.8
20260507194534 53 213 0.0 3.0 0.00 0.00 0.00 72 1012.4
20260507194034 53 140 2.0 3.0 0.00 0.00 0.00 71 1012.4
20260507193534 53 183 1.0 4.0 0.00 0.00 0.00 71 1012.5
20260507193034 53 140 2.0 3.0 0.00 0.00 0.00 70 1012.3
20260507192534 53 290 1.0 1.0 0.00 0.00 0.00 70 1012.2
20260507192034 53 121 2.0 2.0 0.00 0.00 0.00 70 1012.2
20260507191534 54 29 1.0 2.0 0.00 0.00 0.00 70 1012.1
20260507191036 54 185 2.0 3.0 0.00 0.00 0.00 70 1012.4
20260507190534 54 83 1.0 1.0 0.00 0.00 0.00 70 1012.1
20260507190034 54 289 2.0 3.0 0.00 0.00 0.00 70 1012.2
20260507185534 54 321 2.0 3.0 0.00 0.00 0.00 70 1012.2
20260507185034 54 177 2.0 2.0 0.00 0.00 0.00 69 1012.1
20260507184534 54 288 0.0 1.0 0.00 0.00 0.00 69 1012.1
20260507184034 55 288 0.0 1.0 0.00 0.00 0.00 69 1011.8
20260507183534 55 181 1.0 1.0 0.00 0.00 0.00 68 1012.0
20260507183034 55 32 1.0 2.0 0.00 0.00 0.00 68 1012.1
20260507182534 55 180 2.0 2.0 0.00 0.00 0.00 67 1012.1
20260507182034 55 185 1.0 2.0 0.00 0.00 0.00 67 1011.8
20260507181534 55 237 2.0 4.0 0.00 0.00 0.00 67 1011.9
20260507181034 55 119 4.0 8.0 0.00 0.00 0.00 68 1011.8
20260507180534 55 272 1.0 2.0 0.00 0.00 0.00 68 1011.8
20260507180034 55 183 2.0 3.0 0.00 0.00 0.00 67 1011.8
20260507175534 55 114 1.0 1.0 0.00 0.00 0.00 67 1011.9
20260507175034 55 79 0.0 1.0 0.00 0.00 0.00 67 1012.0
20260507174534 55 192 1.0 1.0 0.00 0.00 0.00 66 1011.8
20260507174034 55 260 2.0 3.0 0.00 0.00 0.00 66 1012.0
20260507173534 56 192 0.0 1.0 0.00 0.00 0.00 65 1012.0
20260507173034 56 301 1.0 1.0 0.00 0.00 0.00 64 1011.9
20260507172534 57 153 0.0 1.0 0.00 0.00 0.00 64 1011.9
20260507172034 57 180 1.0 6.0 0.00 0.00 0.00 63 1011.9
20260507171534 58 177 2.0 2.0 0.00 0.00 0.00 63 1011.9
20260507171034 58 246 2.0 3.0 0.00 0.00 0.00 63 1011.9
20260507170534 59 300 1.0 1.0 0.00 0.00 0.00 63 1012.2
20260507170034 59 57 2.0 3.0 0.00 0.00 0.00 62 1012.0
20260507165534 59 240 1.0 1.0 0.00 0.00 0.00 62 1012.0
20260507165034 60 175 2.0 3.0 0.00 0.00 0.00 62 1012.0
20260507164534 60 177 2.0 2.0 0.00 0.00 0.00 62 1012.0
20260507164034 60 167 1.0 2.0 0.00 0.00 0.00 63 1012.4
20260507163534 60 260 1.0 2.0 0.00 0.00 0.00 63 1012.2
20260507163034 59 94 2.0 3.0 0.00 0.00 0.00 63 1012.3
20260507162534 59 264 1.0 1.0 0.00 0.00 0.00 63 1012.3
20260507162034 59 116 0.0 1.0 0.00 0.00 0.00 63 1012.2
20260507161534 59 185 1.0 1.0 0.00 0.00 0.00 62 1012.4
20260507161034 59 59 0.0 1.0 0.00 0.00 0.00 62 1012.0
20260507160534 59 200 1.0 3.0 0.00 0.00 0.00 62 1012.1
20260507160034 59 152 1.0 2.0 0.00 0.00 0.00 62 1011.9
20260507155534 59 196 1.0 2.0 0.00 0.00 0.00 62 1012.1
20260507155034 59 195 1.0 2.0 0.00 0.00 0.00 62 1012.1
20260507154534 59 205 4.0 6.0 0.00 0.00 0.00 62 1012.3
20260507154034 59 166 2.0 3.0 0.00 0.00 0.00 63 1012.2
20260507153534 59 201 0.0 1.0 0.00 0.00 0.00 63 1012.3
20260507153033 59 170 2.0 7.0 0.00 0.00 0.00 63 1012.3
20260507152533 59 344 2.0 4.0 0.00 0.00 0.00 63 1012.4
20260507152033 59 32 2.0 2.0 0.00 0.00 0.00 64 1012.2
20260507151534 59 205 2.0 3.0 0.00 0.00 0.00 63 1012.4
20260507151034 59 189 1.0 2.0 0.00 0.00 0.00 63 1012.4
20260507150534 59 201 2.0 3.0 0.00 0.00 0.00 63 1012.5
20260507150034 59 258 2.0 2.0 0.00 0.00 0.00 63 1012.7
20260507145533 59 179 4.0 4.0 0.00 0.00 0.00 63 1012.6
20260507145033 59 181 1.0 4.0 0.00 0.00 0.00 64 1012.3
20260507144534 59 209 2.0 4.0 0.00 0.00 0.00 63 1012.6
20260507144033 59 218 2.0 4.0 0.00 0.00 0.00 65 1012.7
20260507143533 59 128 2.0 2.0 0.00 0.00 0.00 65 1012.9
20260507143033 59 203 2.0 6.0 0.00 0.00 0.00 64 1012.8
20260507142533 58 185 2.0 2.0 0.00 0.00 0.00 65 1012.5
20260507142033 59 245 3.0 6.0 0.00 0.00 0.00 65 1012.7
20260507141533 59 186 4.0 6.0 0.00 0.00 0.00 65 1012.8
20260507141033 59 191 2.0 4.0 0.00 0.00 0.00 65 1012.9
20260507140533 59 142 3.0 8.0 0.00 0.00 0.00 65 1013.1
20260507140033 59 176 4.0 6.0 0.00 0.00 0.00 65 1013.0
20260507135533 59 207 2.0 3.0 0.00 0.00 0.00 65 1013.1
20260507135033 59 288 1.0 3.0 0.00 0.00 0.00 65 1013.2
20260507134533 58 189 4.0 4.0 0.00 0.00 0.00 66 1013.0
20260507134033 58 202 2.0 3.0 0.00 0.00 0.00 66 1013.2
20260507133533 57 202 1.0 3.0 0.00 0.00 0.00 67 1013.1
20260507133033 57 174 1.0 7.0 0.00 0.00 0.00 68 1013.1
20260507132533 56 154 2.0 3.0 0.00 0.00 0.00 68 1013.4
20260507132033 56 193 2.0 3.0 0.00 0.00 0.00 68 1013.5
20260507131533 55 200 2.0 2.0 0.00 0.00 0.00 67 1013.3
20260507131033 56 183 2.0 3.0 0.00 0.00 0.00 67 1013.4
20260507130533 56 149 2.0 4.0 0.00 0.00 0.00 67 1013.1
20260507130033 56 101 1.0 1.0 0.00 0.00 0.00 66 1013.1
20260507125533 56 167 2.0 2.0 0.00 0.00 0.00 67 1013.3
20260507125033 56 196 1.0 1.0 0.00 0.00 0.00 67 1013.3
20260507124533 56 196 1.0 2.0 0.00 0.00 0.00 68 1013.3
20260507124033 56 197 0.0 0.0 0.00 0.00 0.00 68 1013.5
20260507123533 56 201 1.0 1.0 0.00 0.00 0.00 68 1013.4
20260507123033 55 202 1.0 1.0 0.00 0.00 0.00 69 1013.5
20260507122533 55 198 1.0 1.0 0.00 0.00 0.00 69 1013.3
20260507122033 55 316 0.0 1.0 0.00 0.00 0.00 69 1013.5
20260507121533 55 316 0.0 1.0 0.00 0.00 0.00 70 1013.4
20260507121033 54 189 1.0 1.0 0.00 0.00 0.00 71 1013.5
20260507120533 53 240 0.0 1.0 0.00 0.00 0.00 71 1013.9
20260507120033 53 170 1.0 1.0 0.00 0.00 0.00 71 1013.5
20260507115533 53 199 2.0 2.0 0.00 0.00 0.00 71 1013.5
20260507115033 52 193 0.0 1.0 0.00 0.00 0.00 70 1013.7
20260507114533 53 134 0.0 0.0 0.00 0.00 0.00 70 1013.8
20260507114033 53 190 2.0 2.0 0.00 0.00 0.00 70 1013.7
20260507113533 53 163 1.0 1.0 0.00 0.00 0.00 69 1013.7
20260507113033 53 144 0.0 2.0 0.00 0.00 0.00 69 1013.8
20260507112533 53 135 2.0 2.0 0.00 0.00 0.00 69 1013.4
20260507112033 53 287 3.0 4.0 0.00 0.00 0.00 69 1013.6
20260507111533 53 260 1.0 2.0 0.00 0.00 0.00 69 1013.7
20260507111033 53 203 2.0 2.0 0.00 0.00 0.00 69 1013.6
20260507110533 53 81 1.0 1.0 0.00 0.00 0.00 69 1013.6
20260507110033 53 212 1.0 2.0 0.00 0.00 0.00 69 1013.9
20260507105533 54 175 1.0 1.0 0.00 0.00 0.00 68 1014.0
20260507105033 54 172 0.0 1.0 0.00 0.00 0.00 68 1014.1
20260507104533 54 234 0.0 1.0 0.00 0.00 0.00 67 1013.8
20260507104033 55 0.0 0.0 0.00 0.00 0.00 67 1014.0
20260507103533 55 0.0 0.0 0.00 0.00 0.00 67 1013.8
20260507103033 55 210 1.0 1.0 0.00 0.00 0.00 66 1013.8
20260507102533 55 210 1.0 1.0 0.00 0.00 0.00 66 1013.9
20260507102033 56 0.0 0.0 0.00 0.00 0.00 65 1013.5
20260507101533 56 0.0 0.0 0.00 0.00 0.00 65 1013.7
20260507101033 56 0.0 0.0 0.00 0.00 0.00 65 1013.7
20260507100533 56 76 1.0 1.0 0.00 0.00 0.00 65 1013.7
20260507100033 56 76 1.0 1.0 0.00 0.00 0.00 64 1013.7
20260507095533 56 92 1.0 1.0 0.00 0.00 0.00 64 1013.6
20260507095033 56 0.0 0.0 0.00 0.00 0.00 63 1013.7
20260507094533 57 0.0 0.0 0.00 0.00 0.00 63 1013.6
20260507094033 57 0.0 0.0 0.00 0.00 0.00 65 1013.8
20260507093533 56 0.0 0.0 0.00 0.00 0.00 65 1013.6
20260507093033 56 54 2.0 3.0 0.00 0.00 0.00 64 1013.5
20260507092533 56 54 2.0 3.0 0.00 0.00 0.00 64 1013.6
20260507092033 55 78 2.0 2.0 0.00 0.00 0.00 64 1013.4
20260507091533 55 103 2.0 3.0 0.00 0.00 0.00 64 1013.5
20260507091033 55 78 1.0 2.0 0.00 0.00 0.00 64 1013.6
20260507090533 56 169 2.0 2.0 0.00 0.00 0.00 63 1013.5
20260507090033 57 169 2.0 2.0 0.00 0.00 0.00 63 1013.6
20260507085532 57 95 3.0 4.0 0.00 0.00 0.00 62 1013.6
20260507085032 58 79 3.0 3.0 0.00 0.00 0.00 63 1013.6
20260507084532 59 79 3.0 3.0 0.00 0.00 0.00 65 1013.7
20260507084032 59 153 2.0 3.0 0.00 0.00 0.00 66 1013.7
20260507083532 58 134 3.0 3.0 0.00 0.00 0.00 66 1013.9
20260507083032 57 135 1.0 1.0 0.00 0.00 0.00 65 1013.9
20260507082532 57 165 2.0 2.0 0.00 0.00 0.00 65 1013.8
20260507082032 57 165 2.0 2.0 0.00 0.00 0.00 66 1013.6
20260507081532 57 151 2.0 2.0 0.00 0.00 0.00 67 1013.6
20260507081032 56 110 3.0 3.0 0.00 0.00 0.00 68 1013.8
20260507080532 55 182 2.0 3.0 0.00 0.00 0.00 67 1013.8
20260507080032 55 107 2.0 2.0 0.00 0.00 0.00 68 1013.5
20260507075532 54 194 3.0 4.0 0.00 0.00 0.00 69 1013.9
20260507075032 54 179 2.0 2.0 0.00 0.00 0.00 69 1014.0
20260507074532 53 192 3.0 4.0 0.00 0.00 0.00 69 1014.0
20260507074032 53 145 3.0 3.0 0.00 0.00 0.00 70 1013.8
20260507073532 53 188 4.0 6.0 0.00 0.00 0.00 70 1014.0
20260507073032 52 207 3.0 3.0 0.00 0.00 0.00 70 1013.8
20260507072532 52 197 2.0 2.0 0.00 0.00 0.00 70 1013.7
20260507072032 52 0.0 0.0 0.00 0.00 0.00 71 1013.9
20260507071532 52 0.0 0.0 0.00 0.00 0.00 72 1013.8
20260507071032 51 105 2.0 2.0 0.00 0.00 0.00 73 1013.8
20260507070532 50 105 2.0 2.0 0.00 0.00 0.00 73 1013.8
20260507070032 50 185 2.0 4.0 0.00 0.00 0.00 73 1013.8
20260507065532 49 0.0 0.0 0.00 0.00 0.00 73 1013.9
20260507065032 49 0.0 0.0 0.00 0.00 0.00 74 1013.9
20260507064532 49 0.0 0.0 0.00 0.00 0.00 74 1013.7
20260507064032 48 0.0 0.0 0.00 0.00 0.00 74 1013.7
20260507063532 48 0.0 0.0 0.00 0.00 0.00 74 1014.1
20260507063033 48 0.0 0.0 0.00 0.00 0.00 74 1014.0
20260507062532 48 0.0 0.0 0.00 0.00 0.00 75 1013.8
20260507062032 48 192 2.0 3.0 0.00 0.00 0.00 75 1013.9
20260507061532 48 192 2.0 3.0 0.00 0.00 0.00 75 1014.1
20260507061032 47 156 2.0 3.0 0.00 0.00 0.00 75 1013.8
20260507060532 47 0.0 0.0 0.00 0.00 0.00 75 1013.8
20260507060032 47 190 2.0 2.0 0.00 0.00 0.00 76 1014.0
20260507055532 47 190 2.0 2.0 0.00 0.00 0.00 76 1013.6
20260507055032 47 0.0 0.0 0.00 0.00 0.00 76 1014.0
20260507054532 46 0.0 0.0 0.00 0.00 0.00 76 1013.9
20260507054032 46 0.0 0.0 0.00 0.00 0.00 76 1013.9
20260507053532 46 267 0.0 1.0 0.00 0.00 0.00 75 1013.9
20260507053032 46 267 0.0 1.0 0.00 0.00 0.00 75 1014.0
20260507052532 45 161 0.0 1.0 0.00 0.00 0.00 75 1014.0
20260507052032 45 0.0 0.0 0.00 0.00 0.00 75 1013.9
20260507051532 45 189 1.0 2.0 0.00 0.00 0.00 75 1013.8
20260507051032 45 189 1.0 2.0 0.00 0.00 0.00 75 1013.8
20260507050532 45 199 2.0 3.0 0.00 0.00 0.00 75 1014.1
20260507050032 45 199 2.0 3.0 0.00 0.00 0.00 75 1013.8
20260507045532 45 195 3.0 3.0 0.00 0.00 0.00 75 1013.6
20260507045032 45 0.0 0.0 0.00 0.00 0.00 75 1013.8
20260507044532 44 240 1.0 2.0 0.00 0.00 0.00 75 1014.0
20260507044032 44 240 1.0 2.0 0.00 0.00 0.00 75 1013.9
20260507043532 44 207 3.0 3.0 0.00 0.00 0.00 75 1014.1
20260507043032 45 201 1.0 1.0 0.00 0.00 0.00 75 1013.8
20260507042532 45 197 2.0 4.0 0.00 0.00 0.00 75 1014.0
20260507042032 45 196 2.0 4.0 0.00 0.00 0.00 75 1013.9
20260507041532 45 194 3.0 3.0 0.00 0.00 0.00 75 1013.8
20260507041032 45 206 5.0 7.0 0.00 0.00 0.00 75 1013.8
20260507040532 45 199 1.0 3.0 0.00 0.00 0.00 75 1013.9
20260507040032 45 199 3.0 3.0 0.00 0.00 0.00 74 1013.8
20260507035532 45 194 2.0 2.0 0.00 0.00 0.00 74 1013.8
20260507035032 45 192 2.0 4.0 0.00 0.00 0.00 74 1013.9
20260507034534 45 0.0 0.0 0.00 0.00 0.00 74 1013.6
20260507034032 45 0.0 0.0 0.00 0.00 0.00 74 1013.9
20260507033532 45 200 1.0 2.0 0.00 0.00 0.00 74 1013.8
20260507033032 45 200 1.0 2.0 0.00 0.00 0.00 74 1013.9
20260507032532 45 162 2.0 2.0 0.00 0.00 0.00 74 1014.1
20260507032032 45 162 2.0 2.0 0.00 0.00 0.00 74 1014.1
20260507031532 45 181 2.0 3.0 0.00 0.00 0.00 74 1014.3
20260507031032 45 198 1.0 2.0 0.00 0.00 0.00 74 1014.4
20260507030532 45 0.0 0.0 0.00 0.00 0.00 74 1014.2
20260507030032 45 0.0 0.0 0.00 0.00 0.00 74 1014.3
20260507025532 45 0.0 0.0 0.00 0.00 0.00 74 1014.2
20260507025032 45 207 2.0 3.0 0.00 0.00 0.00 74 1014.3
20260507024532 45 207 2.0 3.0 0.00 0.00 0.00 74 1014.3
20260507024032 45 189 1.0 3.0 0.00 0.00 0.00 74 1014.3
20260507023619 45 0.0 0.0 0.00 0.00 0.00 73 1014.2
20260507023032 45 85 2.0 3.0 0.00 0.00 0.00 73 1014.2
20260507022532 45 85 2.0 3.0 0.00 0.00 0.00 73 1014.2
20260507022032 45 189 2.0 6.0 0.00 0.00 0.00 73 1014.2
20260507021532 45 189 2.0 6.0 0.00 0.00 0.00 73 1014.2
20260507021031 45 198 2.0 4.0 0.00 0.00 0.00 74 1014.2
20260507020532 45 55 4.0 6.0 0.00 0.00 0.00 74 1014.2
20260507020031 46 55 4.0 6.0 0.00 0.00 0.00 74 1014.0
20260507015532 45 0.0 0.0 0.00 0.00 0.00 74 1014.0
20260507015031 45 0.0 0.0 0.00 0.00 0.00 74 1014.2
20260507014531 45 0.0 0.0 0.00 0.00 0.00 74 1014.3
20260507014031 45 0.0 0.0 0.00 0.00 0.00 74 1014.2
20260507013531 45 0.0 0.0 0.00 0.00 0.00 74 1014.2
20260507013031 45 189 4.0 4.0 0.00 0.00 0.00 74 1014.4
20260507012531 45 189 4.0 4.0 0.00 0.00 0.00 74 1014.3
20260507012031 44 197 4.0 6.0 0.00 0.00 0.00 74 1014.4
20260507011531 44 0.0 0.0 0.00 0.00 0.00 74 1014.2
20260507011031 44 0.0 0.0 0.00 0.00 0.00 74 1014.6
20260507010531 44 190 3.0 3.0 0.00 0.00 0.00 73 1014.5
20260507010031 44 190 3.0 3.0 0.00 0.00 0.00 73 1014.7
20260507005531 44 150 3.0 4.0 0.00 0.00 0.00 73 1014.4
20260507005031 44 150 3.0 4.0 0.00 0.00 0.00 73 1014.4
20260507004532 44 0.0 0.0 0.00 0.00 0.00 73 1014.7
20260507004031 44 176 2.0 4.0 0.00 0.00 0.00 72 1014.7
20260507003531 44 176 2.0 4.0 0.00 0.00 0.00 72 1014.7
20260507003031 44 190 2.0 3.0 0.00 0.00 0.00 72 1015.0
20260507002531 44 190 2.0 3.0 0.00 0.00 0.00 72 1014.7
20260507002031 44 199 2.0 2.0 0.00 0.00 0.00 72 1014.6
20260507001531 44 201 2.0 3.0 0.00 0.00 0.00 72 1014.9
20260507001031 45 201 2.0 3.0 0.00 0.00 0.00 71 1014.9
20260507000531 45 0.0 0.0 0.00 0.00 0.00 71 1014.9
20260507000031 45 0.0 0.0 0.00 0.00 0.00 71 1015.0
20260506235531 45 0.0 0.0 0.00 0.00 0.00 71 1015.1
20260506235031 45 0.0 0.0 0.00 0.00 0.00 71 1015.0
20260506234531 45 0.0 0.0 0.00 0.00 0.00 71 1015.2
20260506234031 45 197 5.0 6.0 0.00 0.00 0.00 71 1015.1
20260506233531 45 197 5.0 6.0 0.00 0.00 0.00 71 1015.2
20260506233031 45 0.0 0.0 0.00 0.00 0.00 71 1015.2